TimeEST,TemperatureF,Dew PointF,Humidity,Sea Level PressureIn,VisibilityMPH,Wind Direction,Wind SpeedMPH,Gust SpeedMPH,PrecipitationIn,Events,Conditions,WindDirDegrees,DateUTC
12:09 AM,35.6,21.2,56,30.40,10.0,SW,5.8,-,N/A,,Clear,230,2013-11-14 05:09:00
12:30 AM,35.6,21.2,56,30.39,10.0,SW,4.6,-,N/A,,Clear,230,2013-11-14 05:30:00
12:51 AM,33.8,23.0,65,30.39,10.0,SSW,4.6,-,N/A,,Clear,210,2013-11-14 05:51:00
1:09 AM,33.8,23.0,65,30.38,10.0,Calm,Calm,-,N/A,,Clear,0,2013-11-14 06:09:00
1:30 AM,33.8,23.0,65,30.38,10.0,Calm,Calm,-,N/A,,Clear,0,2013-11-14 06:30:00
1:51 AM,33.8,21.2,60,30.38,10.0,WSW,5.8,-,N/A,,Clear,240,2013-11-14 06:51:00
2:09 AM,33.8,21.2,60,30.38,10.0,SW,3.5,-,N/A,,Clear,220,2013-11-14 07:09:00
2:30 AM,33.8,21.2,60,30.37,10.0,WSW,4.6,-,N/A,,Clear,250,2013-11-14 07:30:00
2:51 AM,33.8,21.2,60,30.36,10.0,WSW,3.5,-,N/A,,Clear,250,2013-11-14 07:51:00
3:09 AM,33.8,21.2,60,30.36,10.0,Calm,Calm,-,N/A,,Clear,0,2013-11-14 08:09:00
3:30 AM,33.8,21.2,60,30.36,10.0,SW,3.5,-,N/A,,Clear,230,2013-11-14 08:30:00
3:51 AM,33.8,21.2,60,30.36,10.0,SW,4.6,-,N/A,,Clear,220,2013-11-14 08:51:00
4:09 AM,33.8,21.2,60,30.36,10.0,SSW,4.6,-,N/A,,Clear,210,2013-11-14 09:09:00
4:30 AM,33.8,21.2,60,30.35,10.0,SW,4.6,-,N/A,,Clear,220,2013-11-14 09:30:00
4:51 AM,33.8,21.2,60,30.35,10.0,SSW,4.6,-,N/A,,Clear,210,2013-11-14 09:51:00
5:09 AM,33.8,21.2,60,30.35,10.0,SSW,3.5,-,N/A,,Clear,200,2013-11-14 10:09:00
5:30 AM,33.8,21.2,60,30.35,10.0,Calm,Calm,-,N/A,,Clear,0,2013-11-14 10:30:00
5:45 AM,33.8,21.2,60,30.35,10.0,Calm,Calm,-,N/A,,Clear,0,2013-11-14 10:45:00
6:45 AM,30.2,21.2,69,30.36,10.0,Calm,Calm,-,N/A,,Partly Cloudy,0,2013-11-14 11:45:00
7:45 AM,33.8,24.8,70,30.38,10.0,SSW,3.5,-,N/A,,Partly Cloudy,200,2013-11-14 12:45:00
8:55 AM,44.6,21.2,39,30.38,10.0,SSW,4.6,-,N/A,,Partly Cloudy,200,2013-11-14 13:55:00
9:55 AM,44.6,19.4,37,30.38,10.0,SSW,5.8,-,N/A,,Partly Cloudy,200,2013-11-14 14:55:00
10:45 AM,48.2,17.6,30,30.35,10.0,WSW,6.9,-,N/A,,Clear,240,2013-11-14 15:45:00
11:55 AM,51.8,17.6,26,30.32,10.0,SW,6.9,-,N/A,,Clear,220,2013-11-14 16:55:00
1:45 PM,51.8,30.2,44,30.28,10.0,SE,10.4,-,N/A,,Clear,140,2013-11-14 18:45:00
2:51 PM,53.6,35.6,51,30.26,10.0,SE,9.2,-,N/A,,Scattered Clouds,140,2013-11-14 19:51:00
3:45 PM,51.8,37.4,58,30.26,10.0,SE,5.8,-,N/A,,Scattered Clouds,130,2013-11-14 20:45:00
4:56 PM,48.2,37.4,66,30.26,10.0,SSE,6.9,-,N/A,,Scattered Clouds,160,2013-11-14 21:56:00
5:45 PM,48.2,35.6,62,30.27,10.0,South,6.9,-,N/A,,Scattered Clouds,180,2013-11-14 22:45:00
6:50 PM,46.4,35.6,66,30.28,10.0,South,4.6,-,N/A,,Clear,180,2013-11-14 23:50:00
7:45 PM,46.4,32.0,57,30.27,10.0,Calm,Calm,-,N/A,,Clear,0,2013-11-15 00:45:00
8:49 PM,39.2,35.6,87,30.27,10.0,Calm,Calm,-,N/A,,Clear,0,2013-11-15 01:49:00
10:12 PM,33.8,33.8,100,30.27,10.0,Calm,Calm,-,N/A,,Clear,0,2013-11-15 03:12:00
10:33 PM,33.8,32.0,93,30.26,10.0,Calm,Calm,-,N/A,,Clear,0,2013-11-15 03:33:00
10:51 PM,33.8,33.8,100,30.26,10.0,Calm,Calm,-,N/A,,Clear,0,2013-11-15 03:51:00
11:12 PM,33.8,32.0,93,30.25,10.0,Calm,Calm,-,N/A,,Clear,0,2013-11-15 04:12:00
11:33 PM,32.0,32.0,100,30.25,10.0,Calm,Calm,-,N/A,,Clear,0,2013-11-15 04:33:00
11:51 PM,32.0,32.0,100,30.25,10.0,Calm,Calm,-,N/A,,Clear,0,2013-11-15 04:51:00